Home   Weather   Bad Mergentheim   Past weeks

Flag for Germany Past Weather in Bad Mergentheim, Baden-Württemberg, Germany — Yesterday and Last 2 Weeks

Now
39 °F

Partly cloudy.


Feels Like: 37 °F
Forecast: 39 / 48 °F
Wind: 3 mph from South

Location: Niederstetten

Current Time: Apr 25, 2017 at 10:34:04 pm

Latest Report: Apr 25, 2017 at 9:20 pm


Visibility: N/A

Pressure: 29.77 "Hg

Humidity: 81%

Dew Point: 34 °F

Location of Bad MergentheimLocation

Past Weather in Bad Mergentheim — Graph

°F

Bad Mergentheim Temperature Yesterday

Maximum temperature yesterday: 59 °F (at 4:20 pm)
Minimum temperature yesterday: 30 °F (at 5:20 am)
Average temperature yesterday: 45 °F

High & Low Weather Summary for the Past Weeks

 TemperatureHumidityPressure
High59 °F (Apr 12, 3:20 pm)100% (Apr 17, 8:20 am)30.54 "Hg (Apr 17, 8:20 am)
Low27 °F (Apr 20, 5:20 am)29% (Apr 24, 5:20 pm)29.68 "Hg (Apr 25, 5:20 am)
Average43 °F65%30.12 "Hg
* Reported Apr 10 8:20 pm — Apr 25 8:20 pm, Bad Mergentheim, Weather by CustomWeather, © 2017

Note: Actual official high and low records may vary slightly from our data, if they occured in-between our weather recording intervals... More about our weather records

Advertising

Bad Mergentheim Weather History for the Previous 24 Hours

Scroll right to see more
 ConditionsComfort  
Time TempWeatherWind HumidityBarometerVisibility
8:20 pm
Tue, Apr 25
39 °FMore clouds than sun.2 mph81%29.77 "HgN/A
7:20 pm41 °FLight rain. More clouds than sun.2 mph70%29.77 "HgN/A
6:20 pm43 °FPartly sunny.7 mph61%29.77 "HgN/A
5:20 pm43 °FPartly sunny.7 mph66%29.77 "HgN/A
5:00 pm43 °FPartly sunny.9 mph66%29.77 "HgN/A
4:20 pm45 °FPartly sunny.8 mph61%29.77 "HgN/A
3:20 pm43 °FPartly sunny.8 mph76%29.77 "HgN/A
2:20 pm43 °FBroken clouds.10 mph76%29.77 "HgN/A
1:20 pm50 °FPartly sunny.14 mph58%29.74 "HgN/A
12:20 pm52 °FMore clouds than sun.16 mph50%29.74 "HgN/A
12:07 pm50 °FMore clouds than sun.16 mph54%29.74 "HgN/A
11:20 am52 °FBroken clouds.15 mph54%29.74 "HgN/A
10:20 am50 °FPartly sunny.18 mph54%29.74 "HgN/A
9:20 am48 °FPartly sunny.14 mph58%29.71 "HgN/A
8:20 am46 °FBroken clouds.13 mph57%29.71 "HgN/A
7:20 am45 °FPartly sunny.13 mph61%29.71 "HgN/A
6:20 am45 °FPartly sunny.12 mph61%29.71 "HgN/A
5:20 am45 °FPassing clouds.12 mph57%29.68 "HgN/A
4:20 am45 °FPassing clouds.6 mph57%29.71 "HgN/A
3:20 am45 °FPassing clouds.2 mph57%29.71 "HgN/A
2:20 am46 °FPassing clouds.7 mph53%29.71 "HgN/A
1:20 am45 °FPassing clouds.5 mph57%29.74 "HgN/A
12:20 am46 °FPassing clouds.5 mph53%29.77 "HgN/A
11:20 pm
Mon, Apr 24
46 °FPassing clouds.5 mph53%29.77 "HgN/A
10:20 pm46 °FPassing clouds.5 mph57%29.80 "HgN/A
Weather by CustomWeather, © 2017

See weather overviewHow to use our weather pages